Weather History for KSNL - November, 2011

Change the Weather History Date:

Wednesday, November 16, 2011

  Actual Average (KTIK) Record (KTIK)
Temperature  
Mean Temperature 48 °F -  
Max Temperature 55 °F 57 °F 75 °F (1999)
Min Temperature 42 °F 39 °F 21 °F (1997)
Degree Days  
Heating Degree Days 16    
Moisture  
Dew Point 27 °F    
Average Humidity 44    
Maximum Humidity 66    
Minimum Humidity 26    
Precipitation  
Precipitation 0.00 in - - ()
Sea Level Pressure  
Sea Level Pressure 30.04 in    
Wind  
Wind Speed 13 mph (NNE)    
Max Wind Speed 23 mph    
Max Gust Speed 33 mph    
Visibility 10 miles    
Events      
Averages and records for this station are not official NWS values.
T = Trace of Precipitation, MM = Missing Value Source: NWS Daily Summary

Daily Weather History Graph

Daily Weather History Graph

Search for Another Location

Airport or City:

Trip Planner

Search our weather history database for the weather conditions in past years. The results will help you decide how hot, cold, wet, or windy it might be!

Date:

Astronomy

Nov. 16, 2011 Rise Set
Actual Time 7:03 AM CST 5:20 PM CST
Civil Twilight 6:36 AM CST 5:48 PM CST
Nautical Twilight 6:05 AM CST 6:18 PM CST
Astronomical Twilight 5:35 AM CST 6:48 PM CST
Moon 10:34 PM CST (11/16) 11:41 AM CST (11/16)
Length of Visible Light 11h 11m
Length of Day
10h 17m
Waning Gibbous, 70% of the Moon is Illuminated
Nov 16
Waning Gibbous
Nov 18
Last Quarter
Nov 25
New
Dec 2
First Quarter
Dec 10
Full

Hourly Weather History & Observations

Time (CST) Temp. Windchill Dew Point Humidity Pressure Visibility Wind Dir Wind Speed Gust Speed Precip Events Conditions
12:15 AM 51.8 °F - 32.0 °F 47% 29.87 in 10.0 mi NNE 10.4 mph - N/A   Clear
12:35 AM 51.8 °F - 32.0 °F 47% 29.88 in 10.0 mi North 8.1 mph - N/A   Clear
12:55 AM 50.0 °F - 32.0 °F 50% 29.89 in 10.0 mi North 11.5 mph - N/A   Clear
1:15 AM 51.8 °F - 32.0 °F 47% 29.89 in 10.0 mi North 12.7 mph - N/A   Clear
1:35 AM 50.0 °F - 32.0 °F 50% 29.88 in 10.0 mi North 13.8 mph - N/A   Clear
1:55 AM 50.0 °F - 32.0 °F 50% 29.89 in 10.0 mi North 12.7 mph 20.7 mph N/A   Clear
2:15 AM 50.0 °F - 32.0 °F 50% 29.88 in 10.0 mi NNE 11.5 mph - N/A   Clear
2:35 AM 50.0 °F - 33.8 °F 54% 29.89 in 10.0 mi North 11.5 mph 17.3 mph N/A   Clear
2:55 AM 50.0 °F - 33.8 °F 54% 29.89 in 10.0 mi NNE 10.4 mph - N/A   Clear
3:15 AM 50.0 °F - 33.8 °F 54% 29.89 in 10.0 mi NNE 10.4 mph - N/A   Clear
3:55 AM 46.4 °F 41.5 °F 32.0 °F 57% 29.89 in 10.0 mi NNE 10.4 mph 16.1 mph N/A   Clear
4:15 AM 46.4 °F 41.1 °F 32.0 °F 57% 29.90 in 10.0 mi NNE 11.5 mph - N/A   Clear
4:35 AM 46.4 °F 41.5 °F 32.0 °F 57% 29.91 in 10.0 mi NNE 10.4 mph - N/A   Clear
4:55 AM 46.4 °F 41.1 °F 32.0 °F 57% 29.92 in 10.0 mi NNE 11.5 mph - N/A   Clear
5:15 AM 46.4 °F 41.5 °F 32.0 °F 57% 29.93 in 10.0 mi NNE 10.4 mph - N/A   Clear
5:35 AM 46.4 °F 41.5 °F 32.0 °F 57% 29.94 in 10.0 mi NNE 10.4 mph - N/A   Clear
5:55 AM 46.4 °F 41.5 °F 32.0 °F 57% 29.95 in 10.0 mi NNE 10.4 mph - N/A   Clear
6:15 AM 44.6 °F 39.2 °F 32.0 °F 61% 29.96 in 10.0 mi NNE 10.4 mph - N/A   Clear
6:35 AM 44.6 °F 38.8 °F 32.0 °F 61% 29.97 in 10.0 mi NNE 11.5 mph - N/A   Clear
6:55 AM 44.6 °F 38.8 °F 32.0 °F 61% 29.98 in 10.0 mi NNE 11.5 mph - N/A   Clear
7:15 AM 44.6 °F 38.8 °F 32.0 °F 61% 30.00 in 10.0 mi North 11.5 mph - N/A   Clear
7:35 AM 42.8 °F 36.6 °F 32.0 °F 66% 30.01 in 10.0 mi North 11.5 mph - N/A   Clear
7:55 AM 44.6 °F 38.8 °F 32.0 °F 61% 30.02 in 10.0 mi North 11.5 mph - N/A   Clear
8:15 AM 44.6 °F 39.2 °F 32.0 °F 61% 30.04 in 10.0 mi NNE 10.4 mph - N/A   Clear
8:35 AM 46.4 °F 40.7 °F 32.0 °F 57% 30.06 in 10.0 mi NNE 12.7 mph 23.0 mph N/A   Clear
8:55 AM 46.4 °F 39.8 °F 30.2 °F 53% 30.06 in 10.0 mi NNE 16.1 mph 24.2 mph N/A   Clear
9:15 AM 50.0 °F - 32.0 °F 50% 30.07 in 10.0 mi NNE 15.0 mph 20.7 mph N/A   Clear
9:35 AM 50.0 °F - 30.2 °F 47% 30.08 in 10.0 mi NNE 17.3 mph 21.9 mph N/A   Clear
10:15 AM 50.0 °F - 28.4 °F 43% 30.10 in 10.0 mi NNE 15.0 mph 27.6 mph N/A   Clear
10:35 AM 51.8 °F - 28.4 °F 41% 30.10 in 10.0 mi NNE 19.6 mph 24.2 mph N/A   Clear
10:55 AM 51.8 °F - 28.4 °F 41% 30.11 in 10.0 mi NNE 20.7 mph 26.5 mph N/A   Clear
11:15 AM 53.6 °F - 30.2 °F 41% 30.10 in 10.0 mi NNE 12.7 mph 26.5 mph N/A   Clear
11:35 AM 53.6 °F - 28.4 °F 38% 30.11 in 10.0 mi NNE 18.4 mph 26.5 mph N/A   Clear
11:55 AM 53.6 °F - 26.6 °F 35% 30.10 in 10.0 mi NNE 20.7 mph 33.4 mph N/A   Clear
12:15 PM 53.6 °F - 24.8 °F 33% 30.10 in 10.0 mi NNE 15.0 mph 29.9 mph N/A   Clear
12:35 PM 55.4 °F - 24.8 °F 31% 30.10 in 10.0 mi NNE 19.6 mph 28.8 mph N/A   Clear
12:55 PM 55.4 °F - 23.0 °F 29% 30.11 in 10.0 mi NNE 20.7 mph 27.6 mph N/A   Clear
1:15 PM 55.4 °F - 23.0 °F 29% 30.12 in 10.0 mi NNE 20.7 mph 29.9 mph N/A   Clear
1:35 PM 55.4 °F - 21.2 °F 26% 30.12 in 10.0 mi NNE 17.3 mph 27.6 mph N/A   Clear
1:55 PM 53.6 °F - 19.4 °F 26% 30.13 in 10.0 mi NNE 23.0 mph 31.1 mph N/A   Clear
2:15 PM 53.6 °F - 19.4 °F 26% 30.14 in 10.0 mi NNE 20.7 mph 28.8 mph N/A   Clear
2:35 PM 53.6 °F - 19.4 °F 26% 30.14 in 10.0 mi North 19.6 mph 28.8 mph N/A   Clear
2:55 PM 53.6 °F - 21.2 °F 28% 30.15 in 10.0 mi NNE 17.3 mph 26.5 mph N/A   Clear
3:15 PM 51.8 °F - 19.4 °F 28% 30.16 in 10.0 mi NNE 18.4 mph 29.9 mph N/A   Clear
3:35 PM 51.8 °F - 19.4 °F 28% 30.17 in 10.0 mi NNE 20.7 mph 28.8 mph N/A   Clear
3:55 PM 50.0 °F - 17.6 °F 28% 30.19 in 10.0 mi NNE 19.6 mph 27.6 mph N/A   Clear
4:15 PM 50.0 °F - 17.6 °F 28% 30.20 in 10.0 mi NNE 19.6 mph 25.3 mph N/A   Clear
4:35 PM 50.0 °F - 17.6 °F 28% 30.20 in 10.0 mi NNE 17.3 mph 26.5 mph N/A   Clear
4:55 PM 50.0 °F - 17.6 °F 28% 30.22 in 10.0 mi NE 15.0 mph 29.9 mph N/A   Clear
5:15 PM 46.4 °F 40.1 °F 17.6 °F 32% 30.23 in 10.0 mi NNE 15.0 mph 21.9 mph N/A   Clear
5:35 PM 46.4 °F 40.4 °F 17.6 °F 32% 30.24 in 10.0 mi NNE 13.8 mph 20.7 mph N/A   Clear
5:55 PM 44.6 °F 38.1 °F 17.6 °F 34% - 10.0 mi NNE 13.8 mph 19.6 mph N/A   Clear
6:15 PM 44.6 °F 39.7 °F 19.4 °F 37% 30.28 in 10.0 mi North 9.2 mph - N/A   Clear
6:35 PM 44.6 °F 39.7 °F 19.4 °F 37% 30.29 in 10.0 mi North 9.2 mph - N/A   Clear
6:55 PM 42.8 °F 36.6 °F 19.4 °F 39% 30.31 in 10.0 mi North 11.5 mph 18.4 mph N/A   Clear
7:35 PM 42.8 °F 36.6 °F 21.2 °F 42% 30.34 in 10.0 mi North 11.5 mph 23.0 mph N/A   Scattered Clouds
7:55 PM 41.0 °F 31.6 °F 26.6 °F 57% 30.36 in 10.0 mi North 20.7 mph 27.6 mph N/A   Clear
8:15 PM 37.4 °F 27.8 °F 30.2 °F 75% 30.38 in 10.0 mi North 17.3 mph 25.3 mph N/A   Clear
8:35 PM 37.4 °F 31.4 °F 30.2 °F 75% 30.38 in 10.0 mi North 8.1 mph - N/A   Clear
8:55 PM 35.6 °F 28.6 °F 30.2 °F 81% 30.38 in 10.0 mi North 9.2 mph - N/A   Clear
9:15 PM 35.6 °F 27.1 °F 30.2 °F 81% 30.40 in 10.0 mi North 12.7 mph 17.3 mph N/A   Clear
9:35 PM 35.6 °F 28.0 °F 32.0 °F 87% 30.41 in 10.0 mi North 10.4 mph - N/A   Clear
9:55 PM 35.6 °F 29.2 °F 32.0 °F 87% 30.42 in 10.0 mi North 8.1 mph - N/A   Clear
10:15 PM 35.6 °F 28.6 °F 32.0 °F 87% 30.42 in 10.0 mi North 9.2 mph - N/A   Clear
10:35 PM 35.6 °F 28.6 °F 32.0 °F 87% 30.43 in 10.0 mi North 9.2 mph - N/A   Clear
10:55 PM 35.6 °F 30.7 °F 32.0 °F 87% 30.44 in 10.0 mi North 5.8 mph - N/A   Clear
11:15 PM 33.8 °F 28.6 °F 32.0 °F 93% 30.44 in 10.0 mi North 5.8 mph - N/A   Clear
11:55 PM 33.8 °F 30.8 °F 32.0 °F 93% 30.43 in 10.0 mi North 3.5 mph - N/A   Clear